GFSMW_con_lsi_057.txt.gz
Lid_Strength_Index
4 3 3 3 2 1 1 1 1 1 1 1 1 2 2 0 0 -0 -1 -1 -1 -1 1 2 4 5 6 6 8 9 10 10 11 12 12 12 12 12 11 11 11 12 12
4 3 3 3 4 3 2 2 3 3 3 2 2 2 2 1 1 1 1 -0 -0 0 1 2 4 5 6 7 9 10 11 11 11 11 12 14 14 13 12 12 12 12 12
5 4 3 4 3 4 3 3 3 3 3 2 2 2 2 2 3 2 2 2 2 2 3 3 4 5 6 8 9 11 11 12 11 10 10 13 13 14 13 13 13 13 13
4 4 4 3 4 4 3 3 3 3 3 2 3 3 3 4 4 3 3 4 4 4 4 4 6 6 6 9 9 9 9 11 12 10 9 9 10 13 17 14 14 13 13
4 4 4 4 3 3 3 3 4 4 3 3 3 3 4 3 2 2 4 4 5 5 6 6 5 6 6 7 8 9 9 9 11 10 11 10 10 10 12 16 16 15 14
5 5 4 4 4 3 3 3 4 4 4 4 3 3 4 3 3 3 4 5 6 7 7 7 7 7 7 8 9 9 9 10 10 10 10 11 12 13 13 14 16 16 15
5 5 5 5 5 5 5 5 5 5 4 4 4 3 3 3 3 4 4 5 7 8 8 9 8 8 7 8 8 9 9 10 10 10 11 10 11 12 12 13 15 16 16
5 5 5 4 5 6 6 6 6 6 5 5 4 4 3 3 3 4 3 4 5 6 7 8 8 7 7 7 8 9 9 10 10 10 11 12 13 13 13 14 15 17 17
5 5 4 4 5 6 6 6 6 6 6 5 5 4 4 4 4 4 3 3 4 4 5 7 8 8 9 9 9 9 10 10 10 10 12 13 13 13 14 14 14 15 18
6 6 5 5 6 6 6 6 6 6 6 6 6 5 5 4 4 4 5 5 5 6 6 7 9 11 11 11 11 11 11 12 11 12 13 14 14 14 14 15 15 15 15
6 6 6 6 6 7 6 6 6 6 6 6 6 6 6 5 5 6 5 6 6 7 9 10 11 12 13 12 12 13 13 13 14 14 15 15 15 16 16 16 16 16 16
5 5 6 6 6 7 7 7 6 6 6 6 7 7 6 6 6 6 6 6 7 8 9 10 12 12 14 14 13 14 14 14 15 15 16 16 16 16 16 16 17 16 16
5 5 5 5 5 6 6 7 7 6 6 6 7 7 7 7 6 6 6 7 8 11 11 13 14 14 15 16 15 15 15 15 16 15 16 17 17 17 17 17 17 16 18
5 5 5 5 4 5 6 6 6 6 6 7 7 7 7 7 7 7 7 8 10 12 12 14 14 14 15 16 16 16 16 16 16 16 16 17 17 17 17 17 17 17 17
6 6 5 5 4 4 5 6 6 7 7 7 8 8 8 7 7 8 8 10 11 12 13 15 15 16 16 17 16 16 16 16 17 17 17 17 16 16 16 17 17 17 17
6 6 5 5 5 5 5 6 7 7 7 8 8 8 9 9 10 10 11 12 13 14 15 16 16 17 17 15 14 16 17 17 17 18 18 17 16 15 15 15 15 16 15
6 6 5 5 5 5 5 6 6 7 9 9 11 11 11 11 11 12 13 13 14 14 16 16 16 17 17 15 14 15 17 17 17 18 17 17 16 16 16 15 15 14 13
5 5 5 4 4 5 6 6 8 9 10 11 12 12 12 13 13 13 13 14 14 15 16 16 16 16 17 14 14 15 17 17 17 17 17 16 17 17 17 16 15 14 14
4 4 6 7 7 7 8 10 11 11 11 12 12 12 13 14 13 14 14 14 15 15 16 16 16 17 17 14 14 15 16 17 17 16 16 15 16 15 14 15 16 16 15
7 8 9 9 9 10 10 12 12 13 13 13 13 13 13 14 14 14 15 15 15 15 16 17 16 16 16 14 13 15 16 17 17 16 16 15 15 13 12 15 16 17 16
9 9 10 10 11 11 12 13 13 14 14 14 14 14 14 15 14 14 14 15 16 17 17 17 17 16 15 14 13 14 16 16 17 17 16 15 13 13 12 12 14 14 13
9 10 11 12 12 13 13 13 15 15 15 15 15 16 15 15 15 15 15 16 16 17 17 18 18 17 15 14 13 13 14 14 16 16 15 14 13 11 11 11 11 11 12
11 12 13 14 14 14 13 15 16 15 16 16 17 16 15 15 14 15 16 16 16 16 17 18 18 17 16 15 13 12 13 13 14 13 13 12 12 11 11 10 10 11 11
13 14 14 14 15 14 15 15 15 15 15 16 16 15 15 15 15 14 15 15 15 16 16 16 16 16 16 16 14 13 12 13 12 12 12 12 12 11 11 11 11 12 11
14 14 14 15 16 15 16 15 14 14 14 15 15 15 15 15 15 14 14 14 14 13 14 14 14 14 15 15 14 13 13 12 11 12 12 12 13 13 12 12 12 11 12
14 16 16 17 18 17 17 16 15 14 14 14 14 14 14 14 14 15 14 12 12 12 12 11 12 13 12 12 13 12 11 11 10 13 13 13 13 13 13 13 13 13 14

GFSMW_con_lsi_060.txt.gz
Lid_Strength_Index
7 6 6 5 4 3 3 2 3 3 2 3 3 4 3 3 2 1 1 0 0 1 1 3 5 5 7 8 9 10 11 11 12 13 14 15 14 15 15 14 15 15 14
7 7 7 7 5 4 3 3 3 3 3 2 3 4 5 4 3 3 3 1 0 0 1 3 4 5 7 7 9 10 11 12 12 13 14 17 17 16 15 15 14 15 15
8 7 7 7 6 5 5 4 3 3 2 3 4 4 5 5 5 4 2 3 3 2 1 3 4 4 5 7 9 10 11 12 12 12 12 15 17 18 16 16 15 15 16
7 7 7 7 7 6 5 4 4 4 4 4 4 4 5 6 6 5 4 3 3 4 3 3 4 4 4 6 9 9 10 12 13 12 11 11 15 17 20 18 17 16 16
7 7 7 6 6 6 6 6 5 5 5 4 4 4 6 6 6 6 6 4 4 3 4 3 4 3 4 6 8 10 10 11 11 11 12 13 13 14 18 20 19 18 16
8 7 7 7 7 6 6 6 6 6 5 5 4 5 5 6 7 6 6 5 5 4 5 5 4 5 5 6 8 9 9 10 10 10 11 12 13 15 16 19 20 19 18
8 8 8 8 8 7 7 6 6 7 6 6 6 5 6 6 7 6 5 6 5 6 6 6 6 5 5 6 7 8 9 9 10 10 10 11 12 13 14 17 19 20 19
8 8 8 7 8 8 7 7 7 7 7 6 6 6 5 5 5 6 5 5 6 6 6 6 6 6 7 7 7 8 9 9 10 10 11 11 12 14 15 16 18 21 20
8 8 8 7 8 8 8 8 8 7 7 7 7 6 6 6 6 6 6 6 6 6 7 7 8 8 7 7 8 8 9 9 10 10 11 13 14 15 15 15 17 19 21
8 8 8 8 8 8 8 7 7 8 7 7 7 7 6 6 6 6 7 7 6 6 7 8 8 8 8 8 8 9 9 10 10 10 12 14 15 15 16 16 17 17 18
8 8 8 8 8 8 8 8 8 8 8 7 7 7 7 7 7 7 7 7 7 8 8 8 8 10 10 10 9 11 11 11 12 13 14 15 15 16 16 17 17 17 17
8 8 8 8 9 9 9 8 8 8 8 8 8 8 8 7 7 8 8 8 8 9 10 11 12 13 13 12 11 12 11 12 13 14 15 16 15 16 17 17 18 18 17
7 7 7 8 8 8 8 8 8 8 8 8 8 8 8 8 8 8 8 8 9 10 12 12 13 14 13 14 12 12 12 12 13 14 15 15 16 17 17 17 17 17 17
7 8 8 8 8 8 8 8 8 8 8 8 8 9 9 8 8 8 9 9 10 12 13 14 13 14 14 15 14 14 14 14 14 15 15 16 16 17 17 17 17 18 18
8 8 8 8 8 8 8 8 8 9 8 8 9 8 10 9 9 10 11 11 12 13 14 15 15 15 15 15 15 15 15 15 16 16 16 16 16 15 16 17 17 17 18
8 8 8 8 8 8 7 7 8 9 9 9 9 9 10 11 12 12 12 13 14 14 15 15 15 15 15 13 13 14 15 16 16 17 17 16 16 15 14 15 15 16 17
7 7 7 7 7 7 7 8 8 9 10 11 13 14 13 13 12 13 13 14 15 15 16 16 15 16 16 13 13 13 16 16 16 17 17 16 16 15 15 14 14 14 13
7 7 7 7 8 8 8 9 11 12 12 14 14 15 14 15 15 15 15 15 16 16 17 17 16 16 16 14 13 14 16 16 16 16 16 16 16 16 16 16 16 16 15
8 9 9 10 10 10 11 13 13 13 13 13 14 14 15 16 16 17 17 17 17 18 19 16 16 16 16 14 13 15 16 17 17 16 16 15 15 14 14 16 16 16 16
10 11 11 11 11 12 12 13 13 14 14 13 13 14 15 16 17 17 18 18 19 17 16 16 16 16 16 13 13 15 16 17 17 16 16 15 15 13 13 16 16 17 16
10 10 11 11 12 13 14 13 14 15 15 16 16 17 16 17 17 17 19 19 19 17 17 17 17 16 15 14 13 14 16 16 17 17 16 15 13 12 12 14 15 15 15
10 11 12 12 13 14 15 15 16 16 17 17 17 18 19 17 17 18 19 19 20 18 17 17 17 16 15 14 12 13 14 14 16 16 16 15 12 12 11 12 13 12 12
11 12 14 14 14 16 16 16 16 16 18 18 18 18 18 17 17 18 19 18 19 18 17 17 18 18 17 16 13 13 13 13 15 15 14 13 12 11 11 11 11 12 12
12 14 15 14 14 16 15 17 17 16 18 18 18 16 15 17 18 17 17 18 18 18 17 17 17 17 17 16 14 13 13 13 13 13 13 13 12 12 11 13 11 12 12
14 14 15 15 16 15 15 15 16 15 16 18 16 15 15 15 17 16 17 15 15 15 17 17 16 17 19 17 14 13 13 12 13 13 13 13 13 13 14 14 13 12 14
14 15 16 16 18 18 16 15 14 14 14 15 16 15 15 15 15 14 13 11 11 11 11 11 12 13 13 12 12 12 12 11 11 13 14 15 15 14 14 15 16 16 15

GFSMW_con_lsi_063.txt.gz
Lid_Strength_Index
8 8 7 6 4 3 3 3 2 2 2 2 2 4 3 4 4 3 2 1 0 1 2 3 5 6 7 8 8 9 10 12 12 13 15 14 14 15 15 15 15 15 15
9 8 8 8 6 3 3 2 3 3 2 2 2 2 4 5 4 4 3 3 1 1 2 3 4 6 7 8 9 9 11 11 12 13 14 16 15 16 15 16 16 16 16
9 9 9 9 7 5 3 3 2 3 2 3 5 7 6 7 6 6 4 4 3 1 1 2 3 4 6 8 9 10 10 12 12 12 12 16 16 18 15 16 16 17 17
9 9 9 9 8 5 4 3 3 3 3 5 5 5 4 4 4 4 5 5 5 4 2 2 3 5 5 7 9 10 9 10 12 12 12 11 14 16 18 16 17 17 17
10 9 9 8 8 7 6 5 5 5 4 4 4 5 4 6 7 6 6 6 6 6 4 2 3 4 4 5 7 9 8 9 10 11 12 12 14 14 16 19 18 17 18
9 9 9 8 8 8 8 7 6 6 6 5 6 5 4 7 7 7 7 7 6 6 5 4 2 3 3 4 6 8 8 8 9 10 9 11 13 13 16 18 18 18 18
9 9 8 9 9 8 8 7 7 7 6 6 6 6 5 6 6 7 6 7 7 6 4 4 3 3 3 4 5 7 8 8 9 10 9 10 10 12 14 16 18 18 18
9 9 9 9 9 9 8 7 7 7 7 7 6 6 6 6 5 6 6 5 6 6 6 5 4 4 4 5 6 7 8 8 9 9 10 9 10 12 13 15 17 19 19
9 9 8 8 8 9 8 8 8 8 8 7 7 7 6 6 6 6 6 5 6 6 6 6 6 5 6 6 6 7 8 8 9 9 10 10 11 12 13 14 15 15 20
9 9 9 9 9 9 8 8 8 8 8 8 7 7 6 6 5 6 6 7 6 7 7 7 6 6 6 7 7 8 8 9 9 9 10 10 10 11 12 13 14 16 16
9 9 9 9 9 9 9 8 8 8 8 8 8 8 7 7 7 6 6 7 7 7 7 8 7 7 8 8 7 7 8 9 9 9 10 10 10 12 14 15 16 16 16
8 8 8 9 9 9 9 9 9 9 8 8 8 8 8 8 8 7 7 8 7 8 8 9 9 9 8 8 8 9 9 10 10 10 11 11 14 14 15 15 16 15 16
8 8 8 8 8 9 9 9 9 8 8 8 8 8 8 8 8 8 8 8 8 9 10 11 11 11 11 10 9 9 10 10 10 11 12 12 15 15 16 15 16 16 16
8 8 8 8 9 8 8 9 9 9 9 9 9 9 9 8 8 9 9 9 9 10 12 12 12 13 14 12 12 11 11 11 11 11 12 13 15 15 16 16 16 17 17
9 8 8 8 8 9 8 8 9 9 9 9 9 9 9 9 9 10 11 11 11 11 12 13 14 14 14 13 13 13 12 13 13 14 14 14 14 14 14 15 16 16 17
9 8 8 8 8 8 8 8 9 9 10 10 10 9 10 11 12 12 12 12 13 13 14 14 14 15 14 12 12 13 14 14 14 15 16 15 15 14 14 14 14 15 17
9 9 9 9 9 9 9 10 10 10 11 12 12 13 13 13 12 12 13 13 13 14 14 15 15 16 15 13 12 12 15 15 15 16 16 16 15 15 15 13 13 14 13
10 10 10 10 10 11 11 12 13 13 13 13 14 13 14 14 15 15 14 14 14 15 16 17 17 17 16 13 12 13 16 15 15 15 15 15 16 15 15 15 15 15 15
10 10 10 11 11 11 13 14 14 14 13 13 13 13 14 16 16 16 16 16 17 18 18 17 17 15 16 13 13 13 16 16 16 16 15 15 15 14 13 16 16 16 15
10 11 11 12 12 12 13 14 14 15 14 14 14 14 15 17 17 16 17 18 18 17 16 15 15 15 15 13 12 14 16 17 16 16 16 15 14 13 13 15 15 16 16
9 9 11 11 12 13 14 14 14 14 15 16 16 16 17 18 18 18 19 19 17 16 16 16 16 16 15 14 12 13 15 16 16 16 16 15 13 12 12 13 14 14 14
10 10 11 11 12 13 14 14 14 14 16 17 18 19 20 17 18 19 21 21 18 16 17 17 16 16 15 13 12 13 14 14 16 16 15 14 12 12 11 12 12 12 13
9 10 12 12 13 16 16 15 15 16 17 18 16 18 19 18 19 18 19 20 19 16 17 17 17 17 16 14 12 12 12 13 15 15 14 13 11 11 10 10 11 12 13
11 13 14 14 14 17 16 16 17 17 17 15 15 15 16 18 20 18 18 18 19 17 17 17 17 17 17 16 14 13 12 13 13 13 13 12 12 11 12 13 11 11 12
12 15 15 14 15 17 17 17 16 17 17 14 14 14 15 17 18 17 15 15 15 15 18 19 18 18 19 18 13 12 13 13 13 13 13 13 13 13 13 13 13 14 16
13 15 16 17 18 19 19 15 16 16 15 14 14 14 15 16 16 14 13 11 11 11 12 12 14 14 14 12 11 11 11 10 11 12 13 13 13 13 13 14 17 17 16

GFSMW_con_lsi_069.txt.gz
Lid_Strength_Index
10 10 10 8 5 3 3 2 2 2 2 2 2 2 2 3 2 1 1 0 0 1 3 3 4 5 6 6 7 9 10 12 12 13 13 14 13 13 13 11 10 10 10
11 10 10 11 8 5 2 2 2 1 1 1 1 1 2 3 3 4 3 1 1 1 2 3 4 5 6 6 7 9 11 12 12 12 13 14 14 14 13 14 13 11 11
11 11 11 11 11 9 5 2 2 1 1 1 3 6 6 7 7 7 5 4 1 1 1 2 4 5 6 7 8 8 8 11 12 11 12 15 13 16 15 15 14 13 14
12 11 11 11 11 10 8 4 2 1 1 1 3 3 3 3 3 3 5 5 3 3 1 2 3 4 4 5 8 8 7 8 12 12 11 11 13 14 15 17 15 15 14
10 10 10 10 10 10 9 6 3 3 3 2 2 3 4 4 6 7 6 6 6 3 2 1 2 3 4 4 6 7 7 6 8 10 12 11 12 13 14 14 17 16 16
11 11 10 10 9 10 9 7 4 4 4 4 4 4 4 6 8 9 8 8 7 6 4 2 2 2 3 4 5 6 7 7 7 8 8 10 11 12 14 15 16 17 15
11 10 10 10 10 9 9 8 6 6 5 5 5 5 5 6 7 7 7 9 8 8 6 3 2 2 3 3 4 6 6 6 6 7 9 8 8 8 10 11 14 16 15
11 10 10 10 10 9 9 9 8 7 7 6 5 6 6 6 5 6 6 6 6 5 5 5 2 1 2 3 3 4 5 5 6 6 6 7 8 8 9 9 11 15 16
10 10 9 9 9 9 9 9 8 8 8 8 7 7 7 6 5 6 6 5 6 6 6 6 6 4 3 2 2 3 4 5 6 6 6 7 7 7 8 9 9 10 10
10 10 10 10 10 10 9 9 9 9 9 8 8 8 8 7 6 6 7 6 6 7 7 7 6 6 6 5 5 4 4 5 5 6 6 7 7 7 8 9 10 9 9
10 10 10 9 9 9 9 9 9 9 9 9 9 9 8 8 8 7 7 7 7 7 7 7 7 7 7 7 5 5 5 6 6 6 7 7 7 8 8 9 10 10 10
9 9 9 9 9 9 9 9 9 9 9 9 9 9 8 8 8 8 7 8 7 8 7 8 8 7 6 6 6 6 6 6 7 7 8 8 8 9 8 10 10 11 11
10 10 9 10 9 10 10 10 9 9 9 9 9 9 9 9 9 8 8 9 9 9 9 9 9 8 7 6 6 6 6 7 7 7 8 8 9 9 9 10 10 11 12
10 10 9 9 9 9 9 9 9 9 10 10 10 10 10 9 9 9 9 10 10 10 10 11 10 10 8 8 7 7 8 8 8 8 8 8 9 9 10 11 12 13 14
10 10 10 10 10 10 10 10 10 11 11 12 12 11 11 11 11 12 12 12 12 11 11 12 12 12 11 9 10 10 10 10 9 11 11 10 10 11 10 12 13 14 14
11 11 10 10 10 10 11 11 11 12 13 13 13 13 14 14 14 14 13 13 13 13 13 13 13 13 12 10 9 10 11 12 12 12 12 12 13 12 10 10 11 12 14
11 11 11 11 11 11 11 11 11 12 14 14 14 14 14 14 14 14 14 13 13 13 13 13 13 14 14 11 10 11 13 13 13 13 13 14 14 14 13 11 11 12 11
11 11 11 11 11 11 12 12 13 14 13 13 15 15 15 15 15 14 15 14 14 15 15 15 15 16 15 11 10 10 13 13 13 13 13 14 14 14 14 14 14 14 14
11 11 12 12 12 12 12 14 13 14 14 14 13 14 15 15 15 16 15 15 16 17 17 16 17 17 13 12 11 11 13 14 14 14 14 14 14 13 12 14 15 14 14
12 12 12 12 13 12 13 14 14 15 14 13 13 14 15 15 14 14 15 16 18 16 16 14 13 13 13 12 11 12 14 15 15 15 15 14 14 12 12 14 14 15 14
12 13 13 13 12 12 14 14 14 14 13 15 15 16 16 16 16 16 18 18 18 17 17 15 14 13 14 13 11 12 14 15 15 15 15 14 13 11 11 12 14 13 13
12 12 13 12 12 13 15 14 14 13 15 15 16 16 15 17 16 21 20 21 20 19 16 14 14 14 13 12 10 11 13 13 14 14 14 13 12 11 11 13 11 11 13
11 11 13 13 12 15 16 15 13 15 15 16 16 14 13 17 19 21 20 21 22 20 17 15 15 15 14 12 10 11 12 13 14 14 13 12 11 11 11 11 10 13 14
13 14 15 14 14 14 15 16 15 16 18 18 17 14 14 17 20 18 18 16 16 14 14 14 14 14 14 13 12 12 12 13 13 12 12 12 12 10 11 12 11 12 12
14 15 15 15 15 15 15 16 16 13 15 17 17 15 16 18 18 16 16 16 16 13 13 13 13 13 14 13 11 12 13 14 13 13 13 13 13 13 13 13 13 13 13
15 15 16 16 15 17 16 16 20 17 14 14 14 13 13 16 16 13 13 10 10 10 10 10 12 13 12 10 10 11 11 11 11 12 13 14 13 14 15 15 14 15 17

GFSMW_con_lsi_072.txt.gz
Lid_Strength_Index
10 10 10 8 5 3 3 2 2 2 2 2 2 2 2 1 2 2 1 0 1 1 2 4 4 5 6 6 6 8 9 10 11 11 11 12 12 13 12 10 10 10 9
12 11 11 11 9 5 2 2 2 2 2 1 2 2 1 1 2 2 2 1 0 1 2 2 4 5 5 6 7 8 10 11 11 10 12 11 11 12 12 13 12 10 11
13 12 11 12 12 10 6 3 2 2 1 1 4 6 5 5 5 5 3 2 1 0 1 2 2 4 5 6 7 7 8 10 12 11 9 13 12 14 14 13 12 12 11
11 11 11 11 12 11 10 5 3 2 2 2 3 3 2 3 2 2 4 5 3 2 1 1 2 4 4 4 6 6 7 7 11 11 11 11 11 13 12 15 15 13 13
12 11 11 10 10 10 11 9 5 3 3 2 2 3 3 4 5 6 5 6 6 3 2 1 1 3 4 3 4 6 7 6 8 10 12 11 11 12 13 9 11 15 15
11 11 10 10 10 10 9 8 6 4 3 3 4 4 4 5 7 7 7 7 7 6 5 2 1 2 3 3 4 5 6 6 6 7 8 9 11 11 12 12 11 11 14
11 11 10 10 10 9 10 8 6 6 5 5 5 5 5 5 6 6 7 8 8 8 7 5 2 2 2 3 3 4 5 6 6 6 7 7 6 6 9 10 9 13 13
11 10 10 10 10 10 9 9 8 8 7 6 5 6 6 6 6 6 6 6 6 6 6 6 3 1 1 2 3 3 4 4 5 5 5 6 6 6 6 8 9 11 14
11 11 10 10 10 10 10 10 9 9 9 8 8 8 7 6 6 6 6 6 6 6 6 6 6 5 3 1 2 2 4 4 5 5 5 6 5 6 6 7 8 8 10
11 11 10 10 10 10 10 10 9 9 9 9 9 9 9 8 8 7 7 7 7 7 7 7 7 7 6 5 3 3 3 4 4 5 6 6 5 6 6 7 8 8 8
11 11 10 10 10 10 10 10 10 10 10 10 9 9 9 9 9 8 8 8 8 8 8 8 7 7 7 7 6 5 4 4 5 5 6 6 6 6 6 7 8 8 9
11 10 10 10 10 10 10 10 10 10 10 10 10 9 9 9 9 9 8 8 8 8 8 8 8 8 8 8 8 7 6 6 6 6 6 6 7 7 6 7 8 9 9
10 10 10 10 10 10 10 10 10 10 10 10 10 10 10 10 10 9 9 9 9 9 10 10 10 9 9 8 7 6 6 6 6 6 7 7 8 8 8 8 9 9 9
10 10 10 11 11 10 10 10 10 10 11 11 11 11 11 11 11 11 11 11 11 11 11 11 11 11 10 9 7 7 7 7 7 7 7 8 8 9 9 9 10 10 11
11 11 11 11 11 11 11 11 11 11 11 12 12 12 12 13 13 13 13 13 13 12 12 13 13 13 12 10 9 9 8 9 8 9 10 10 10 10 9 10 11 12 12
11 11 11 11 11 12 12 12 12 12 13 13 14 13 14 14 14 14 14 14 14 13 13 13 13 13 12 10 9 9 11 11 11 10 11 11 12 11 10 9 9 11 12
12 12 12 12 12 12 12 12 12 13 14 14 15 15 15 15 15 15 15 14 14 14 14 14 14 14 14 11 10 9 10 11 11 11 11 12 12 12 12 11 10 10 10
12 12 12 12 12 12 12 13 13 14 14 14 15 16 15 16 16 16 16 15 15 14 15 15 15 16 14 11 10 9 11 11 12 12 12 12 13 13 13 13 13 13 13
12 12 12 12 13 13 13 14 14 14 14 14 14 15 15 16 16 16 16 16 16 16 16 15 16 17 15 10 10 9 11 11 12 13 13 13 13 13 11 13 14 14 14
12 12 13 13 13 13 14 14 14 15 15 14 15 16 16 17 17 16 16 17 18 15 15 15 17 17 13 11 10 10 11 12 13 13 13 13 13 12 11 13 13 14 14
13 14 14 13 13 13 14 14 15 15 14 16 16 16 16 17 17 17 17 17 17 17 18 17 18 17 14 13 11 9 12 12 13 13 13 12 10 11 10 12 13 13 12
13 13 13 13 13 14 16 15 15 14 16 16 16 16 17 15 15 19 18 19 20 20 18 19 16 17 16 12 10 10 11 11 13 13 13 13 11 10 10 12 10 10 12
12 12 14 14 13 15 16 16 14 16 16 17 17 16 16 14 17 20 18 19 22 20 18 18 18 15 14 12 9 10 10 11 12 12 12 11 10 10 11 10 10 13 13
14 15 16 15 15 15 16 16 15 16 16 14 14 15 15 13 15 17 17 18 18 18 16 17 17 14 14 12 12 11 12 11 11 11 11 10 10 10 11 12 12 13 13
14 16 16 15 15 15 15 16 17 18 18 16 14 13 13 14 15 15 15 16 16 15 17 17 17 16 15 12 10 11 11 12 11 11 11 12 12 13 13 13 13 13 14
16 17 18 18 18 19 17 16 21 22 21 17 15 14 13 13 13 14 15 11 9 9 9 9 12 13 10 8 8 8 9 9 9 13 14 13 13 14 14 14 16 18 17

GFSMW_con_lsi_075.txt.gz
Lid_Strength_Index
10 10 9 8 4 1 2 2 2 1 1 1 2 2 2 1 1 1 1 1 1 2 2 3 3 4 5 5 5 5 8 8 8 10 8 8 8 8 7 6 6 6 7
11 11 10 10 8 4 1 1 1 1 1 1 1 1 1 1 1 1 2 1 1 1 2 3 3 3 3 5 6 7 8 7 10 8 10 8 7 8 7 7 8 6 6
12 10 10 10 10 9 5 2 1 1 0 0 1 3 3 3 3 3 2 2 1 1 1 2 2 3 3 4 5 6 6 7 10 10 8 11 10 9 9 9 9 8 7
11 11 10 9 9 9 10 5 2 1 1 1 1 1 2 2 1 1 1 1 1 1 1 2 2 3 4 4 4 5 6 6 9 10 9 9 9 10 10 11 11 10 10
11 10 10 9 9 8 8 9 5 2 1 1 1 1 2 2 3 3 3 3 3 1 1 1 1 2 3 3 3 5 6 6 5 8 10 9 9 11 11 9 8 13 12
11 10 10 9 9 8 7 5 5 3 2 1 2 2 2 3 4 4 4 4 4 4 3 2 1 1 2 3 3 4 5 5 6 5 7 8 10 10 10 11 9 9 7
10 10 10 10 9 9 8 6 5 4 3 2 2 3 3 3 3 4 4 4 4 5 4 4 3 2 2 2 2 3 4 4 5 5 5 6 6 6 7 8 8 9 9
11 11 10 10 10 10 9 8 8 8 6 5 4 4 4 3 3 3 3 4 3 3 3 3 2 1 0 0 1 1 2 2 4 4 4 4 5 4 5 6 8 9 8
11 11 10 10 10 10 10 9 9 9 8 8 8 7 7 6 5 5 5 4 4 5 4 4 4 4 3 1 1 1 2 3 3 4 4 4 4 5 5 5 6 7 8
10 10 10 10 10 10 10 9 9 9 9 9 8 8 8 8 7 7 7 6 6 6 6 6 5 5 5 4 3 2 1 2 3 3 4 4 4 4 5 5 6 6 7
11 10 10 10 10 9 9 9 9 9 9 9 9 8 8 8 8 8 7 7 7 7 7 7 6 6 6 5 5 4 4 4 4 4 5 5 5 5 5 6 6 7 7
11 10 10 10 10 10 10 10 10 10 10 10 10 10 9 9 9 9 9 8 8 8 8 8 8 7 7 7 7 6 6 6 6 5 5 5 5 6 5 5 6 7 7
11 11 11 11 10 10 10 10 10 10 11 11 10 10 10 10 10 10 10 10 10 10 9 9 9 9 9 8 8 7 7 6 6 6 6 6 6 7 7 7 7 8 8
11 11 11 11 11 11 11 11 10 11 11 11 11 11 11 11 11 11 11 11 11 11 11 11 11 11 10 10 9 8 7 7 6 6 6 6 7 7 7 8 8 8 9
11 11 11 11 11 11 11 11 11 11 12 12 12 12 12 13 13 13 13 13 13 12 12 12 12 11 11 11 10 10 9 9 9 8 8 8 8 9 8 9 8 9 10
12 12 11 11 11 11 11 11 12 12 13 13 13 13 13 14 14 14 14 14 13 13 13 13 13 13 12 10 10 10 11 11 11 10 10 10 11 10 9 8 8 8 10
12 12 12 12 12 12 12 12 12 13 14 14 14 14 14 15 15 15 15 14 14 14 14 14 13 13 13 11 10 10 11 11 10 10 10 10 10 11 10 9 9 9 8
12 12 12 12 12 12 13 13 13 14 14 15 15 15 15 15 15 16 15 15 15 15 15 15 14 14 14 11 10 10 10 10 10 10 10 11 10 10 11 11 12 12 12
12 12 12 12 13 13 13 14 14 14 14 14 14 15 16 16 16 17 16 15 15 15 15 14 15 15 14 11 9 9 11 10 10 11 11 11 11 11 10 11 12 12 12
12 12 13 13 13 13 14 14 14 15 15 15 15 15 16 17 17 16 16 16 16 15 15 14 14 15 15 12 11 10 11 11 11 12 12 12 11 10 10 11 11 12 12
12 13 13 13 14 14 15 15 15 15 15 16 16 16 16 17 17 16 17 16 17 16 16 16 15 15 15 14 11 10 11 11 12 12 12 12 10 9 9 10 11 11 11
14 13 13 13 13 15 16 16 16 15 17 17 17 17 18 17 15 15 17 18 18 18 17 16 15 14 14 13 11 9 10 10 12 12 12 11 9 9 9 10 9 9 11
14 14 15 15 14 17 17 16 15 16 17 18 16 14 14 17 14 14 16 16 18 17 16 15 15 14 14 13 10 9 10 11 12 11 11 10 8 8 9 8 9 11 11
15 16 17 17 17 17 16 18 17 16 19 19 17 16 15 13 12 13 14 16 16 16 15 15 15 15 14 13 11 10 12 11 11 10 9 9 8 8 9 10 11 11 11
16 17 18 18 18 18 18 19 17 18 19 19 18 16 14 14 13 12 12 14 13 13 13 13 13 13 14 12 10 10 11 10 10 9 9 10 11 11 11 12 12 12 12
18 19 20 21 20 20 20 20 22 21 21 20 18 17 16 15 14 14 13 11 10 9 8 8 8 11 10 9 7 8 8 8 8 10 11 12 12 12 12 14 15 15 15